Location: Bleurville
(48.0619°N, 5.9642°E)
Time: 11:15:59
(UTC+00:00)

Daily predictions for brighter satellites

Satellite Brightness Start Highest point End
(mag) Time Altitude Azimuth Time Altitude Azimuth Time Altitude Azimuth
USA 234 4.5 19:41:27 10° ENE 19:47:29 41° N 19:53:31 10° WNW
Cosmos 2221 2.6 19:44:55 10° N 19:49:14 85° W 19:53:34 10° S
ERBS 4.0 19:47:24 10° WNW 19:50:04 24° SW 19:52:43 10° S
RESURS DK-1 2.3 19:46:39 10° SSW 19:50:45 68° ESE 19:54:54 10° NE
COSMOS 2406 3.7 19:48:28 10° SW 19:54:07 67° WNW 19:59:51 10° NNE
BREEZE-M DEB (TANK) 3.6 19:51:03 10° SSW 19:54:21 40° SE 20:04:01 10° ENE
Cosmos 2322 Rocket 3.4 19:49:29 10° NNW 19:54:22 29° NE 19:59:12 10° ESE
Cosmos 1689 Rocket 4.1 19:53:31 10° N 19:56:02 31° WNW 19:58:30 10° SW
IRS-1A Rocket 4.4 19:50:47 10° SSE 19:56:18 78° WSW 20:01:51 10° NNW
Cosmos 304 Rocket 4.4 19:54:36 10° NNW 19:59:11 43° ENE 20:03:44 10° SE
BREEZE-M DEB (TANK) 3.3 19:56:50 10° WNW 19:59:46 75° SSW 20:08:02 10° ESE
Cosmos 1933 4.2 19:56:58 10° N 20:00:41 33° ENE 20:04:22 10° SE
Cosmos 1538 Rocket 4.2 19:56:37 10° S 20:01:39 51° ESE 20:06:40 10° NNE
Resurs 01 Rocket 1.6 19:59:49 10° SSE 20:04:15 81° ENE 20:08:44 10° NNW
ERS-2 2.0 20:01:47 10° NNE 20:05:27 77° ESE 20:09:04 10° S
Cosmos 2151 3.5 20:02:14 10° SSE 20:06:12 41° E 20:10:14 10° NNE
Cosmos 2098 Rocket 2.4 20:04:23 10° S 20:07:27 65° E 20:11:06 10° NNE
Cosmos 44 Rocket 4.1 20:02:21 10° SW 20:07:31 63° NW 20:12:44 10° NNE
Gbstr 26 Del rocket 2.8 20:05:06 10° WNW 20:08:50 73° NNE 20:12:46 10° ESE
Meteor 2-3 Rocket 4.2 20:06:08 10° SSE 20:11:24 41° E 20:16:44 10° NNE
CARTOSAT-1 4.4 20:09:30 10° SE 20:13:22 36° ENE 20:17:20 10° N
Cosmos 2219 Rocket 4.4 20:12:13 10° N 20:15:16 15° NE 20:18:19 10° ENE
Ariane Rocket 3.8 20:13:47 10° S 20:18:43 52° W 20:23:42 10° NNW
SL-16 R/B 2.6 20:17:38 10° NNW 20:23:12 53° ENE 20:28:03 14° SE
Cosmos 1782 3.5 20:23:23 10° N 20:27:11 38° ENE 20:30:03 15° SE
Cosmos 371 Rocket 3.6 20:23:08 10° NNW 20:27:54 64° WSW 20:32:39 10° S
ARIANE 5 R/B 3.2 20:26:51 14° SE 20:30:27 45° ENE 20:34:42 10° N
Cosmos 1271 Rocket 2.9 20:29:49 10° N 20:33:47 62° ENE 20:36:56 16° SSE
USA 276 2.0 20:33:19 10° WNW 20:36:29 75° SSW 20:38:32 20° ESE
SPOT 1/Viking Rocket 3.6 20:31:24 10° SSE 20:36:35 86° WSW 20:41:51 10° NNW
BREEZE-M DEB (TANK) 2.7 20:34:38 10° W 20:37:35 56° SSW 20:43:14 15° SE
Cosmos 2195 Rocket 4.5 20:32:27 10° S 20:38:30 67° E 20:44:35 10° NNE
Cosmos 1076 Rocket 4.3 20:34:26 10° SSW 20:38:41 55° WNW 20:43:00 10° N
Cosmos 1766 Rocket 4.3 20:37:42 16° SSE 20:40:39 35° E 20:44:38 10° NNE
Cosmos 1151 Rocket 3.5 20:36:36 10° N 20:40:47 44° ENE 20:43:40 19° SE
ATLAS 5 CENTAUR R/B 4.1 20:37:55 10° NNW 20:41:42 20° NNE 20:45:57 10° ENE
Cosmos 1328 Rocket 4.3 20:40:49 10° N 20:45:00 38° ENE 20:47:39 19° SE
ATLAS 2AS CENTAUR R/B 3.8 20:37:35 10° WSW 20:45:20 55° NW 20:52:50 10° NE
Cosmos 923 Rocket 4.1 20:42:48 10° S 20:48:01 58° ESE 20:53:16 10° NNE
ATLAS 3B R/B 3.4 20:43:30 10° NW 20:50:20 50° WSW 20:56:42 13° S
Terra 2.4 20:47:56 19° SE 20:51:02 44° ENE 20:55:33 10° N
SPOT 5 2.7 20:50:48 20° SSE 20:53:40 61° ENE 20:58:01 10° N
USA 267 4.2 20:49:11 10° ENE 20:54:20 24° SE 20:59:01 12° S
Cosmos 2082 Rocket 3.5 20:51:14 10° SW 20:56:35 43° NW 21:01:59 10° NNE
Cosmos 1092 Rocket 4.1 20:50:19 10° S 20:56:35 87° W 21:02:58 10° N
Cosmos 2056 Rocket 4.0 20:53:34 10° NNW 20:58:49 50° ENE 21:02:09 21° SE
NOSS 2-1 (C) 4.1 21:00:51 23° ESE 21:00:51 23° ESE 21:03:04 10° ENE
BREEZE-M DEB (TANK) 1.6 21:00:05 10° W 21:02:24 71° N 21:03:12 28° ENE
ERS-1 Rocket 2.9 21:00:35 20° SSE 21:04:05 79° ENE 21:09:08 10° NNW
Cosmos 2360 Rocket 2.6 21:01:04 10° NNW 21:06:36 53° ENE 21:10:08 22° SE
SL-27 R/B 3.6 21:06:23 25° ESE 21:06:36 25° ESE 21:09:36 10° NE
NOSS 2-1 (D) 3.8 21:08:18 28° ESE 21:08:18 28° ESE 21:10:54 10° ENE
Cosmos 158 Rocket 4.5 21:02:52 10° SW 21:07:59 63° WNW 21:13:16 10° NNE
Cosmos 2026 Rocket 4.0 21:03:13 10° S 21:09:34 86° W 21:15:53 10° N
GP-B 3.3 21:08:11 10° N 21:12:37 70° W 21:16:13 15° SSW
ISS -2.2 21:12:31 10° W 21:15:15 23° SW 21:15:55 21° SSW
Cosmos 2333 Rocket 3.2 21:11:51 10° NNW 21:17:03 35° NE 21:20:38 18° ESE
Spot 2 Rocket 4.0 21:14:48 16° S 21:18:45 57° W 21:23:48 10° NNW
Meteor 1-10 Rocket 4.4 21:14:26 10° N 21:19:55 55° ENE 21:22:51 26° SE
Cosmos 1371 Rocket 4.0 21:14:58 10° NNW 21:20:23 81° ENE 21:23:22 27° SSE
Cosmos 1812 2.6 21:17:37 10° N 21:21:30 78° E 21:23:04 34° SSE
Cosmos 2112 Rocket 3.9 21:17:49 13° SSW 21:22:38 73° ESE 21:27:54 10° NNE
Cosmos 1680 Rocket 3.4 21:17:50 10° SSW 21:23:07 85° ESE 21:28:25 10° NNE
Cosmos 220 Rocket 4.0 21:19:28 10° NNW 21:23:48 84° WSW 21:25:50 31° SSE
Cosmos 1980 Rocket 4.5 21:23:42 10° WNW 21:27:09 17° W 21:30:36 10° SW
Okean 3 Rocket 3.6 21:24:58 20° SSW 21:28:06 82° W 21:32:39 10° N
USA 234 3.9 21:23:29 10° E 21:29:48 53° NNE 21:36:09 10° NW
Cosmos 292 Rocket 4.1 21:26:54 10° NNW 21:31:36 56° ENE 21:33:40 31° SE
Cosmos 2237 Rocket 4.4 21:33:25 10° N 21:37:12 18° NE 21:40:59 10° E
Cosmos 2322 Rocket 2.5 21:33:16 10° NW 21:38:47 58° WSW 21:41:46 27° S
Resurs 01 Rocket 4.3 21:39:36 10° WSW 21:41:20 12° W 21:43:06 10° WNW
Cosmos 1408 Rocket 3.4 21:40:12 35° S 21:41:58 75° E 21:46:18 10° NNE
Cosmos 1743 Rocket 4.1 21:42:22 36° SE 21:43:23 42° E 21:47:35 10° NNE
Cosmos 2315 Rocket 4.4 21:43:11 10° N 21:49:22 52° ENE 21:52:17 30° SE
Cosmos 1553 Rocket 4.3 21:45:51 10° NNW 21:51:49 61° W 21:55:36 23° SSW
Cosmos 2084 3.2 21:48:52 17° SW 21:51:55 87° SE 21:56:07 10° NE
Sich 1 4.4 21:51:50 24° E 21:52:08 24° E 21:55:39 10° NE
Gbstr 26 Del rocket 3.9 21:52:02 10° W 21:55:22 29° SW 21:55:26 29° SW
Cosmos 2266 Rocket 3.9 21:53:29 31° S 21:56:33 71° E 22:02:46 10° NNE
Cosmos 1862 3.7 21:57:03 30° SW 21:58:48 58° WNW 22:02:45 10° N
Cosmos 2219 Rocket 2.5 21:55:00 10° NNW 22:00:32 56° ENE 22:02:58 32° ESE
Cosmos 1624 Rocket 4.4 21:55:44 10° NNW 22:00:48 53° WSW 22:02:57 32° SSW
Cosmos 2228 Rocket 3.3 22:00:45 10° N 22:05:07 58° ENE 22:06:05 46° SE
Cosmos 1515 Rocket 3.9 22:00:52 10° NNW 22:05:15 59° W 22:06:43 37° SSW
H-2A R/B 3.5 22:01:32 10° NNE 22:05:44 78° WNW 22:07:14 39° SSW
NOSS 2-1 (E) 2.9 22:05:22 53° WSW 22:06:02 77° NW 22:09:30 10° NE
SL-16 R/B 3.6 22:02:15 10° NW 22:07:01 28° WSW 22:09:55 18° SSW
NOSS 3-1 (C) 4.0 22:02:17 10° NW 22:09:43 89° NE 22:14:30 30° SE
Cosmos 2333 4.1 22:04:30 10° NNW 22:10:09 89° ENE 22:12:13 41° SSE
COSMOS 2455 3.0 22:09:10 38° SSE 22:11:03 51° ESE 22:16:51 10° NE
Cosmos 1420 Rocket 4.2 22:06:34 10° NNW 22:11:51 64° WSW 22:13:43 39° S
Cosmos 883 Rocket 4.4 22:07:59 10° N 22:14:14 89° E 22:16:57 37° S
COSMOS 2428 3.0 22:09:37 10° NNW 22:15:17 60° ENE 22:17:35 35° ESE
Cosmos 1655 Rocket 4.1 22:12:44 27° SSW 22:16:28 77° W 22:22:54 10° N
Cosmos 1515 4.4 22:17:06 10° N 22:20:42 40° ENE 22:20:48 39° E
S3M 4.5 22:15:53 10° NNW 22:22:05 55° W 22:25:25 28° SSW
Spot 4 3.9 22:21:45 48° SE 22:22:59 69° ENE 22:27:48 10° N
USA 229 DEB 4.0 22:16:38 10° NW 22:23:55 75° NE 22:28:16 29° SE
USA 229 4.0 22:16:44 10° NW 22:24:01 74° NE 22:28:23 28° SE
Cosmos 1174 4.4 22:24:24 10° NW 22:26:29 33° W 22:26:29 33° W
ATLAS 5 CENTAUR R/B 2.7 22:22:01 10° NW 22:27:20 58° NE 22:30:39 27° ESE
Terra 3.5 22:26:49 18° SW 22:28:57 25° W 22:32:54 10° NW
COSMOS 2487 2.8 22:31:49 53° NE 22:31:49 53° NE 22:34:33 10° NNE
Cosmos 1452 Rocket 3.4 22:26:08 10° NNW 22:31:25 83° WSW 22:32:49 50° SSE
Cosmos 1707 Rocket 3.9 22:27:29 10° N 22:31:45 50° ENE 22:32:18 46° ESE
ALOS 2 3.0 22:33:57 45° ESE 22:34:41 51° ENE 22:38:57 10° N
USA 267 3.1 22:31:28 10° NE 22:38:03 77° SE 22:44:36 10° SW
SL-27 R/B 4.5 22:39:50 18° WSW 22:41:35 26° WNW 22:44:41 10° N
Meteor 1-27 Rocket 4.2 22:36:44 10° NNW 22:42:13 54° W 22:44:14 36° SSW
NOSS 3-1 (A) 4.0 22:36:57 10° NW 22:44:24 90° NE 22:48:48 33° SE
Cosmos 1805 Rocket 3.7 22:49:13 56° SW 22:50:00 70° W 22:54:27 10° N
Cosmos 2360 Rocket 3.5 22:45:35 10° NW 22:50:17 28° WSW 22:51:53 24° SW
Nadezhda 2 Rocket 4.5 22:49:09 44° S 22:51:17 76° E 22:57:42 10° NNE
Meteor 1-20 Rocket 4.1 22:54:51 48° SSW 22:56:31 87° WNW 23:02:15 10° N
Cosmos 1110 Rocket 3.9 22:52:07 10° NNW 22:57:29 88° ENE 22:58:40 56° SSE
Cosmos 1980 4.2 22:53:34 10° NNW 22:59:09 54° ENE 23:01:19 34° ESE
Cosmos 2333 Rocket 2.7 22:56:05 10° NW 23:01:27 45° WSW 23:02:38 40° SW
Cosmos 1331 Rocket 3.9 22:57:38 10° NNW 23:02:55 88° ENE 23:03:58 58° SSE
Cosmos 1244 Rocket 4.4 23:03:47 46° S 23:05:46 88° E 23:12:00 10° N
Cosmos 2322 4.4 23:06:19 10° NW 23:11:38 40° WSW 23:12:44 36° SW
USA 234 3.2 23:10:02 39° SE 23:12:42 74° SW 23:19:16 10° WNW
Cosmos 1340 Rocket 4.4 23:13:35 24° E 23:13:35 24° E 23:16:21 10° NE
NOSS 0 Rocket 3.8 23:07:49 10° NNW 23:14:07 88° WSW 23:16:01 48° SSE
Cosmos 2297 Rocket 2.8 23:17:11 38° ESE 23:17:42 39° ESE 23:22:55 10° NE
Okean 1-7 4.2 23:14:33 10° N 23:18:20 30° ENE 23:18:54 29° E
Lacrosse 5 2.9 23:21:59 31° ESE 23:21:59 31° ESE 23:25:27 10° ENE
Cosmos 2237 Rocket 2.3 23:16:36 10° NNW 23:22:19 73° ENE 23:24:02 46° SE
Cosmos 2084 Rocket 3.5 23:19:34 10° NW 23:23:46 72° NE 23:24:07 67° E
NOSS 2-2 (E) 4.5 23:19:46 10° NW 23:25:02 75° NE 23:28:32 31° SE
Meteor 1-18 Rocket 4.3 23:19:41 10° NNW 23:25:33 74° W 23:26:57 52° SSW
Cosmos 1500 3.3 23:26:57 70° NW 23:26:57 70° NW 23:30:32 10° N
Cosmos 1470 Rocket 3.5 23:29:03 67° E 23:29:04 67° E 23:33:22 10° NNE
Cosmos 2227 Rocket 2.9 23:28:53 35° ESE 23:29:25 36° ESE 23:34:32 10° NE
Sich 1 4.1 23:28:46 32° W 23:29:38 35° WNW 23:33:39 10° N
Okean 1 4.1 23:28:08 10° NNW 23:31:46 42° W 23:31:46 42° W
Cosmos 1633 Rocket 3.1 23:33:06 63° WSW 23:33:24 65° WNW 23:37:45 10° N
Cosmos 494 Rocket 4.4 23:33:16 40° WSW 23:34:49 56° WNW 23:39:54 10° NNE
Cosmos 1933 Rocket 3.9 23:35:34 51° E 23:35:42 51° E 23:40:03 10° NNE
Cosmos 1666 Rocket 4.1 23:37:07 46° W 23:37:38 49° WNW 23:41:59 10° N
Meteor 1-11 Rocket 4.4 23:41:19 35° ESE 23:42:29 39° E 23:47:35 10° NNE
Cosmos 2219 Rocket 3.4 23:39:34 10° NW 23:44:06 26° WSW 23:44:40 25° WSW
NOSS 2-2 (C) 4.3 23:44:02 10° NW 23:49:16 87° NE 23:52:23 35° SE
SL-16 R/B 3.0 23:44:07 10° NNW 23:49:35 46° NE 23:52:42 24° ESE
Cosmos 1269 Rocket 3.9 23:50:05 62° S 23:50:56 78° ESE 23:56:14 10° NNE
PSLV R/B 3.7 23:46:57 10° NNE 23:51:44 70° ESE 23:52:12 65° SE
Resurs 1-4 Rocket 4.1 23:50:22 10° NE 23:53:28 16° E 23:55:13 13° ESE
